• In Belarus
  • List of Countries
  • For 7 days
  • Water Temperature
  • Satellite Maps
  • Weather Map
  • Weather Widgets
  • user-avatar
    Login

    Hourly Weather Bergen

    Today, 23 November, Thursday

    Time Temperature Precipitation Wind Pressure Humidity
    00:00 +1°C° 1.6 mm 4 mps 728 mmHg 94%
    01:00 +3°C° 2.3 mm 4 mps 727 mmHg 95%
    02:00 +3°C° 2.3 mm 4 mps 726 mmHg 95%
    03:00 +4°C° 2.3 mm 4 mps 725 mmHg 96%
    04:00 +4°C° 2.7 mm 4 mps 725 mmHg 96%
    05:00 +4°C° 2.7 mm 4 mps 724 mmHg 97%
    06:00 +5°C° 2.7 mm 3 mps 724 mmHg 97%
    07:00 +5°C° 2 mm 3 mps 724 mmHg 97%
    08:00 +5°C° 2 mm 3 mps 723 mmHg 98%
    09:00 +7°C° 2 mm 3 mps 723 mmHg 98%
    10:00 +6°C° 1.2 mm 4 mps 723 mmHg 97%
    11:00 +6°C° 1.2 mm 5 mps 723 mmHg 97%
    12:00 +6°C° 1.2 mm 7 mps 723 mmHg 96%
    13:00 +5°C° 1.2 mm 7 mps 724 mmHg 94%
    14:00 +4°C° 1.2 mm 8 mps 724 mmHg 91%
    15:00 +4°C° 1.2 mm 8 mps 724 mmHg 88%
    16:00 +2°C° 1.5 mm 8 mps 725 mmHg 88%
    17:00 +2°C° 1.5 mm 8 mps 727 mmHg 89%
    18:00 +1°C° 1.5 mm 8 mps 728 mmHg 89%
    19:00 +1°C° 0.9 mm 8 mps 729 mmHg 88%
    20:00 +2°C° 0.9 mm 7 mps 730 mmHg 87%
    21:00 0°C° 0.9 mm 7 mps 732 mmHg 85%
    22:00 0°C° 0.8 mm 7 mps 732 mmHg 85%
    23:00 0°C° 0.8 mm 8 mps 733 mmHg 85%

    Tomorrow, 24 November, Friday

    Time Temperature Precipitation Wind Pressure Humidity
    00:00 0°C° 0.8 mm 8 mps 734 mmHg 85%
    01:00 0°C° 0.5 mm 9 mps 734 mmHg 84%
    02:00 0°C° 0.5 mm 9 mps 735 mmHg 82%
    03:00 0°C° 0.5 mm 10 mps 735 mmHg 81%
    04:00 0°C° 0.5 mm 10 mps 736 mmHg 80%
    05:00 -1°C° 0.5 mm 11 mps 736 mmHg 80%
    06:00 -1°C° 0.5 mm 11 mps 736 mmHg 79%
    07:00 -1°C° 0.5 mm 11 mps 737 mmHg 79%
    08:00 -1°C° 0.5 mm 11 mps 737 mmHg 79%
    09:00 -1°C° 0.5 mm 11 mps 737 mmHg 79%
    10:00 -1°C° 0.4 mm 11 mps 737 mmHg 78%
    11:00 -1°C° 0.4 mm 11 mps 738 mmHg 78%
    12:00 -1°C° 0.4 mm 11 mps 738 mmHg 78%
    13:00 -1°C° 0.5 mm 11 mps 739 mmHg 79%
    14:00 0°C° 0.5 mm 10 mps 739 mmHg 80%
    15:00 0°C° 0.5 mm 10 mps 739 mmHg 81%
    16:00 0°C° 0.6 mm 10 mps 739 mmHg 82%
    17:00 0°C° 0.6 mm 10 mps 740 mmHg 82%
    18:00 0°C° 0.6 mm 9 mps 740 mmHg 83%
    19:00 0°C° 0.8 mm 9 mps 740 mmHg 84%
    20:00 -1°C° 0.8 mm 9 mps 740 mmHg 84%
    21:00 -1°C° 0.8 mm 8 mps 740 mmHg 85%
    22:00 -1°C° 0.8 mm 8 mps 740 mmHg 85%
    23:00 -1°C° 0.8 mm 8 mps 740 mmHg 86%

    Day after tomorrow, 25 November, Saturday

    Time Temperature Precipitation Wind Pressure Humidity
    00:00 -1°C° 0.8 mm 8 mps 740 mmHg 86%
    01:00 -1°C° 0.8 mm 8 mps 740 mmHg 86%
    02:00 -1°C° 0.8 mm 8 mps 740 mmHg 86%
    03:00 -1°C° 0.8 mm 8 mps 740 mmHg 86%
    04:00 -1°C° 0.8 mm 8 mps 740 mmHg 85%
    05:00 -1°C° 0.8 mm 9 mps 740 mmHg 85%
    06:00 -1°C° 0.8 mm 9 mps 739 mmHg 84%
    07:00 0°C° 0.7 mm 9 mps 739 mmHg 84%
    08:00 0°C° 0.7 mm 10 mps 739 mmHg 84%
    09:00 0°C° 0.7 mm 10 mps 739 mmHg 84%
    10:00 -1°C° 1.4 mm 11 mps 739 mmHg 85%
    11:00 -1°C° 1.4 mm 12 mps 738 mmHg 86%
    12:00 -1°C° 1.4 mm 13 mps 738 mmHg 87%
    13:00 -1°C° 2.9 mm 13 mps 738 mmHg 87%
    14:00 -1°C° 2.9 mm 13 mps 737 mmHg 88%
    15:00 0°C° 2.9 mm 14 mps 737 mmHg 88%
    16:00 0°C° 3 mm 12 mps 737 mmHg 89%
    17:00 -1°C° 3 mm 11 mps 737 mmHg 91%
    18:00 0°C° 3 mm 10 mps 737 mmHg 92%
    19:00 0°C° 1.7 mm 10 mps 737 mmHg 92%
    20:00 +1°C° 1.7 mm 10 mps 737 mmHg 91%
    21:00 +1°C° 1.7 mm 9 mps 737 mmHg 91%
    22:00 +1°C° 1.1 mm 9 mps 737 mmHg 91%
    23:00 +1°C° 1.1 mm 9 mps 737 mmHg 90%

    26 November, Sunday

    Time Temperature Precipitation Wind Pressure Humidity
    00:00 +1°C° 1.1 mm 9 mps 737 mmHg 90%
    01:00 +1°C° 1 mm 8 mps 737 mmHg 90%
    02:00 +2°C° 1 mm 7 mps 737 mmHg 90%
    03:00 +2°C° 1 mm 7 mps 737 mmHg 91%
    04:00 +2°C° 1.3 mm 6 mps 737 mmHg 91%
    05:00 +1°C° 1.3 mm 5 mps 737 mmHg 92%
    06:00 +1°C° 1.3 mm 5 mps 737 mmHg 92%
    07:00 +1°C° 0.8 mm 5 mps 738 mmHg 92%
    08:00 +1°C° 0.8 mm 5 mps 738 mmHg 92%
    09:00 +1°C° 0.8 mm 5 mps 739 mmHg 92%
    10:00 +1°C° 0.7 mm 5 mps 739 mmHg 92%
    11:00 +2°C° 0.7 mm 5 mps 740 mmHg 92%
    12:00 +2°C° 0.7 mm 5 mps 740 mmHg 93%
    13:00 +1°C° 0.2 mm 5 mps 741 mmHg 92%
    14:00 +1°C° 0.2 mm 5 mps 741 mmHg 91%
    15:00 +1°C° 0.2 mm 5 mps 742 mmHg 91%
    16:00 +1°C° 0.4 mm 5 mps 742 mmHg 91%
    17:00 +1°C° 0.4 mm 6 mps 743 mmHg 92%
    18:00 -1°C° 0.4 mm 6 mps 744 mmHg 92%
    19:00 +1°C° 0.4 mm 5 mps 744 mmHg 92%
    20:00 +1°C° 0.4 mm 5 mps 744 mmHg 92%
    21:00 +1°C° 0.4 mm 5 mps 745 mmHg 91%
    22:00 +1°C° 0.2 mm 3 mps 745 mmHg 91%
    23:00 +2°C° 0.2 mm 2 mps 745 mmHg 91%

    27 November, Monday

    Time Temperature Precipitation Wind Pressure Humidity
    00:00 +2°C° 0.2 mm 1 mps 745 mmHg 90%
    01:00 +2°C° 0.1 mm 1 mps 745 mmHg 91%
    02:00 +1°C° 0.1 mm 2 mps 745 mmHg 91%
    03:00 -1°C° 0.1 mm 2 mps 745 mmHg 92%
    04:00 -1°C° 0 mm 2 mps 745 mmHg 92%
    05:00 -2°C° 0 mm 2 mps 745 mmHg 93%
    06:00 -1°C° 0 mm 1 mps 746 mmHg 93%
    07:00 -3°C° 0 mm 2 mps 746 mmHg 92%
    08:00 -3°C° 0 mm 2 mps 746 mmHg 91%
    09:00 -4°C° 0 mm 2 mps 746 mmHg 91%
    10:00 -3°C° 0.1 mm 2 mps 746 mmHg 89%
    11:00 -3°C° 0.1 mm 2 mps 746 mmHg 87%
    12:00 -2°C° 0.1 mm 2 mps 747 mmHg 85%
    13:00 -3°C° 0.1 mm 2 mps 747 mmHg 84%
    14:00 -3°C° 0.1 mm 2 mps 746 mmHg 83%
    15:00 -3°C° 0.1 mm 2 mps 746 mmHg 82%
    16:00 -3°C° 0.1 mm 2 mps 747 mmHg 81%
    17:00 -3°C° 0.1 mm 2 mps 747 mmHg 80%
    18:00 -3°C° 0.1 mm 2 mps 747 mmHg 79%
    19:00 -4°C° 0 mm 2 mps 747 mmHg 78%
    20:00 -4°C° 0 mm 2 mps 747 mmHg 76%
    21:00 -5°C° 0 mm 2 mps 747 mmHg 75%
    22:00 -5°C° 0 mm 2 mps 747 mmHg 74%
    23:00 -5°C° 0 mm 2 mps 747 mmHg 74%

    28 November, Tuesday

    Time Temperature Precipitation Wind Pressure Humidity
    00:00 -5°C° 0 mm 2 mps 747 mmHg 73%
    01:00 -5°C° 0 mm 2 mps 747 mmHg 72%
    02:00 -5°C° 0 mm 2 mps 747 mmHg 71%
    03:00 -6°C° 0 mm 2 mps 747 mmHg 70%
    04:00 -6°C° 0 mm 2 mps 747 mmHg 69%
    05:00 -6°C° 0 mm 2 mps 747 mmHg 68%
    06:00 -6°C° 0 mm 2 mps 747 mmHg 68%
    07:00 -6°C° 0 mm 2 mps 747 mmHg 67%
    08:00 -6°C° 0 mm 2 mps 747 mmHg 67%
    09:00 -6°C° 0 mm 2 mps 747 mmHg 67%
    10:00 -6°C° 0 mm 2 mps 747 mmHg 67%
    11:00 -5°C° 0 mm 2 mps 747 mmHg 68%
    12:00 -5°C° 0 mm 2 mps 747 mmHg 68%
    13:00 -6°C° 0 mm 3 mps 747 mmHg 69%
    14:00 -6°C° 0 mm 3 mps 748 mmHg 69%
    15:00 -7°C° 0 mm 3 mps 748 mmHg 69%
    16:00 -7°C° 0 mm 3 mps 748 mmHg 70%
    17:00 -7°C° 0 mm 3 mps 748 mmHg 71%
    18:00 -7°C° 0 mm 3 mps 749 mmHg 72%
    19:00 -7°C° 0 mm 3 mps 749 mmHg 73%
    20:00 -7°C° 0 mm 3 mps 749 mmHg 74%
    21:00 -7°C° 0 mm 3 mps 749 mmHg 75%
    22:00 -7°C° 0 mm 3 mps 750 mmHg 76%
    23:00 -7°C° 0 mm 3 mps 750 mmHg 76%
    Show more